[[{"header":{"parameterUnit":"m.s-1","parameterCategory":1,"la1":30.2991,"la2":30.254,"lo1":-89.0895,"lo2":-89.0444,"dy":0.0017,"dx":0.0017,"nx":28,"ny":28,"refTime":"2023-07-20T09:00:00:Z","depth":0,"parameterNumber":2,"parameterNumberName":"U-component_of_WINDS"},"data":[0,0,0,0,0,0,0,0,0,0,0,0,0,0,0,0,0,0,0,0,0,0,0,0,0,0,0,0,0,0,0,0,0,0,0,0,0,0,0,0,0,0,0,0,0,0,0,0,0,0,0,0,0,0,0,0,0,0,3.4674,3.4674,0,3.4654,3.4654,3.4654,3.454,3.4537,3.4535,3.4532,3.4514,3.4516,3.4518,0,0,0,0,0,0,0,0,0,0,0,0,0,3.4613,3.4614,3.4674,3.4674,3.4674,3.4655,3.4654,3.4654,3.4541,3.4537,3.4534,3.4531,3.4513,3.4515,3.4518,0,0,0,0,0,0,0,0,0,0,0,0,0,3.4621,3.4615,3.4674,3.4615,3.4609,3.4655,3.4654,3.4654,3.4541,3.4537,3.4533,3.4529,3.4512,3.4515,3.4518,3.462,0,0,3.4528,3.4529,0,0,0,0,0,0,0,0,3.4621,3.4623,3.4624,3.4619,3.4613,3.4595,3.4626,3.4642,3.4542,3.4567,3.4532,3.4527,3.4544,3.4544,3.455,3.4619,3.4618,3.4528,3.453,3.4531,3.4532,0,0,0,0,0,0,0,3.462,3.4624,3.4666,3.4624,3.4617,3.4589,3.4585,3.4628,3.4579,3.4565,3.4556,3.4556,3.4541,3.4547,3.4549,3.4618,3.4528,3.4531,3.4532,3.4534,3.4764,3.4768,0,0,0,0,0,0,3.4628,3.4624,3.4667,3.4666,3.4607,3.4593,3.4589,3.4605,3.4578,3.457,3.4559,3.455,3.4544,3.4545,3.4548,3.4661,3.4531,3.4534,3.4536,3.476,3.4765,3.4769,0,0,0,0,0,0,3.4627,3.4633,3.4668,3.4642,3.4645,3.4599,3.4617,3.4607,3.4613,3.4574,3.4565,3.4575,3.4541,3.4543,3.4601,3.4659,3.4535,3.4538,3.4755,3.4761,3.4767,3.489,0,0,0,0,0,0,3.4626,3.4633,3.4672,3.4644,3.4647,3.4723,3.4621,3.461,3.4619,3.4607,3.4586,3.4579,3.4538,3.4597,3.4604,3.4661,3.4541,3.4749,3.4758,3.4765,3.4881,3.49,3.4917,0,0,0,0,0,3.4624,3.4709,3.4674,3.468,3.4694,3.4726,3.4727,3.4678,3.4624,3.4662,3.4636,3.458,3.4652,3.4604,3.4611,3.4669,3.4745,3.4755,3.4764,3.4873,3.4897,3.4916,0,0,0,0,0,0,3.4746,3.4704,3.4665,3.4744,3.4739,3.4707,3.4753,3.4705,3.4716,3.4705,3.4643,3.4639,3.4706,3.4694,3.4641,3.4764,3.4689,3.47,3.4769,3.4791,3.4808,3.4809,3.4543,0,0,0,0,0,3.4781,3.4811,3.4773,3.4846,3.4845,3.48,3.4812,3.4774,3.4767,3.4765,3.4743,3.4739,3.4759,3.4775,3.4793,3.4879,3.4871,3.4923,3.494,3.4955,3.4965,3.5006,3.5027,3.4801,3.4801,3.4801,0,0,3.4856,3.4837,3.486,3.487,3.4862,3.4893,3.4799,3.4837,3.4859,3.4771,3.4823,3.4807,3.4798,3.487,3.49,3.4862,3.5026,3.4968,3.498,3.4981,3.5018,3.5039,3.5059,3.4807,3.4806,3.4805,0,0,3.5006,3.4997,3.5054,3.5047,3.5035,3.5004,3.5018,3.4992,3.4977,3.5029,3.4962,3.4988,3.5026,3.5021,3.5024,3.5169,3.5117,3.5177,3.5269,3.531,3.5328,3.5343,3.5392,3.541,3.5188,3.5188,3.5188,0,3.5101,3.5144,3.509,3.513,3.5135,3.5056,3.5112,3.5108,3.5104,3.5109,3.5066,3.511,3.5098,3.5166,3.5201,3.5207,3.5219,3.5178,3.533,3.5345,3.5358,3.5403,3.5422,3.5195,3.5194,3.5193,3.5193,0,3.5259,3.529,3.5338,3.5332,3.5343,3.5393,3.5344,3.5362,3.5322,3.5295,3.5347,3.533,3.5341,3.5355,3.5318,3.5416,3.5392,3.5341,3.5263,3.5388,3.5429,3.5446,3.5205,3.5203,3.52,3.5199,0,0,3.5485,3.5447,3.5465,3.546,3.544,3.5463,3.5508,3.5517,3.5531,3.5531,3.5565,3.5598,3.5549,3.5552,3.5514,3.555,3.5661,3.5493,3.5492,3.5522,3.5764,3.5801,3.5822,3.5627,3.5631,3.5633,3.5764,0,3.5626,3.5698,3.5649,3.5729,3.5755,3.5679,3.5717,3.5709,3.5684,3.5703,3.5676,3.5699,3.5635,3.5636,3.5668,3.5641,3.5709,3.5631,3.5656,3.5658,3.5658,3.5844,3.5883,3.6007,3.578,3.5783,3.5785,0,3.5801,3.5804,3.5887,3.5857,3.5867,3.5902,3.5904,3.5924,3.5912,3.5891,3.5894,3.5845,3.5885,3.5811,3.5864,3.5812,3.5819,3.5808,3.5811,3.5809,3.5727,3.5844,3.6046,3.6064,3.5811,3.5809,3.5807,0,3.5952,3.5979,3.603,3.6029,3.5998,3.6023,3.6012,3.5995,3.6003,3.6006,3.6009,3.6018,3.6022,3.6029,3.5983,3.5934,3.6041,3.5964,3.6023,3.6024,3.6046,3.6045,3.625,3.6058,3.6057,3.6057,3.6056,0,3.6113,3.6165,3.6097,3.6129,3.6184,3.6127,3.6184,3.6164,3.615,3.6175,3.6111,3.6136,3.6076,3.6095,3.606,3.6106,3.611,3.6093,3.6082,3.6097,3.6098,3.6098,3.6087,3.6062,3.6061,3.606,3.6059,0,3.6291,3.6248,3.6298,3.6263,3.6256,3.6298,3.6268,3.6295,3.6266,3.6299,3.6303,3.6258,3.6276,3.6231,3.6244,3.622,3.6286,3.6264,3.629,3.6281,3.6341,3.6335,3.655,3.6574,3.6371,3.6373,3.6375,0,3.6395,3.6433,3.6401,3.6412,3.6404,3.6424,3.643,3.6376,3.6385,3.6372,3.64,3.6413,3.642,3.6453,3.6421,3.6429,3.6404,3.6479,3.6405,3.6417,3.64,3.6397,3.6399,3.6493,3.6496,3.6498,3.65,0,3.6582,3.6558,3.6569,3.6573,3.6582,3.6582,3.6578,3.6592,3.6532,3.6546,3.6563,3.6569,3.658,3.6592,3.6593,3.658,3.653,3.6523,3.6537,3.655,3.6562,3.6552,3.6327,3.6518,3.6516,3.6515,3.6514,3.6513,3.6723,3.6751,3.6732,3.6746,3.6737,3.6734,3.6756,3.6729,3.6742,3.6745,3.6713,3.6736,3.6721,3.6716,3.6708,3.6725,3.6691,3.6712,3.6716,3.6721,3.6729,3.6562,3.6726,3.6725,3.6725,3.6724,3.6724,0,3.6903,3.6886,3.69,3.6895,3.6905,3.6856,3.6849,3.6861,3.6881,3.6871,3.6878,3.6896,3.6908,3.6876,3.6882,3.6901,3.6878,3.6905,3.6901,3.6898,3.6761,3.6747,3.6923,3.6923,3.6923,3.6923,3.6923,3.6923,3.6998,3.7042,3.7015,3.7053,3.7037,3.7058,3.7057,3.7053,3.7044,3.7066,3.7075,3.7054,3.7034,3.7038,3.7045,3.7035,3.7039,3.7073,3.7055,3.6928,3.6908,3.689,3.6876,3.7075,3.7076,3.719,3.7191,3.7191]},{"header":{"parameterUnit":"m.s-1","parameterCategory":1,"la1":30.2991,"la2":30.254,"lo1":-89.0895,"lo2":-89.0444,"dy":0.0017,"dx":0.0017,"nx":28,"ny":28,"refTime":"2023-07-20T09:00:00:Z","depth":0,"parameterNumber":3,"parameterNumberName":"V-component_of_WINDS"},"data":[0,0,0,0,0,0,0,0,0,0,0,0,0,0,0,0,0,0,0,0,0,0,0,0,0,0,0,0,0,0,0,0,0,0,0,0,0,0,0,0,0,0,0,0,0,0,0,0,0,0,0,0,0,0,0,0,0,0,5.3722,5.3724,0,5.3877,5.3879,5.388,5.3869,5.3867,5.3865,5.3862,5.4015,5.4021,5.4027,0,0,0,0,0,0,0,0,0,0,0,0,0,5.3411,5.3417,5.3722,5.3724,5.3726,5.3877,5.3879,5.3881,5.3869,5.3867,5.3864,5.3861,5.4013,5.4021,5.4028,0,0,0,0,0,0,0,0,0,0,0,0,0,5.3554,5.3419,5.3722,5.3739,5.3742,5.3876,5.3879,5.3881,5.387,5.3867,5.3863,5.386,5.4011,5.402,5.4029,5.4155,0,0,5.4057,5.4061,0,0,0,0,0,0,0,0,5.3546,5.3565,5.3734,5.3738,5.3741,5.385,5.3825,5.3973,5.3871,5.3821,5.3862,5.3858,5.3963,5.3976,5.4012,5.4162,5.4169,5.4058,5.4064,5.4068,5.4071,0,0,0,0,0,0,0,5.3536,5.3558,5.3783,5.3737,5.3741,5.3736,5.3753,5.3853,5.3909,5.3825,5.3825,5.3844,5.3964,5.4003,5.4016,5.4171,5.4058,5.4066,5.4072,5.4076,5.443,5.4434,0,0,0,0,0,0,5.3523,5.355,5.3778,5.3788,5.3633,5.3745,5.3763,5.3819,5.3908,5.3918,5.3846,5.3842,5.3989,5.4005,5.4021,5.4173,5.4068,5.4077,5.4082,5.4426,5.4431,5.4435,0,0,0,0,0,0,5.3516,5.3543,5.3772,5.3669,5.3698,5.3754,5.3816,5.3824,5.3863,5.3924,5.3933,5.3877,5.3987,5.4008,5.4122,5.4178,5.4081,5.4089,5.4422,5.4428,5.4433,5.4479,0,0,0,0,0,0,5.3507,5.3541,5.3591,5.367,5.3703,5.3872,5.382,5.3829,5.388,5.3876,5.3955,5.3965,5.3986,5.4108,5.4131,5.4189,5.4096,5.4417,5.4424,5.4431,5.4473,5.4486,5.4497,0,0,0,0,0,5.3496,5.3597,5.3594,5.3621,5.3767,5.3876,5.3894,5.3918,5.3884,5.3934,5.3973,5.3962,5.4169,5.412,5.4146,5.4208,5.4413,5.4422,5.4431,5.4468,5.4484,5.4497,0,0,0,0,0,0,5.3521,5.3608,5.3605,5.3735,5.3798,5.3874,5.3937,5.3935,5.4007,5.4001,5.4026,5.4044,5.4158,5.4194,5.4138,5.4333,5.4286,5.43,5.4305,5.4321,5.4333,5.4321,5.4104,0,0,0,0,0,5.3542,5.3625,5.3695,5.3803,5.3835,5.3881,5.3929,5.3942,5.4008,5.4034,5.4081,5.4144,5.4223,5.4274,5.435,5.4478,5.4494,5.4534,5.4546,5.4555,5.4567,5.4636,5.4653,5.4463,5.4463,5.4463,0,0,5.3586,5.3643,5.3694,5.3809,5.386,5.3943,5.3903,5.3993,5.4054,5.4047,5.4157,5.4194,5.4266,5.4387,5.4443,5.4421,5.4623,5.4566,5.4574,5.458,5.4646,5.4664,5.468,5.4469,5.4468,5.4467,0,0,5.3707,5.376,5.3855,5.3907,5.3984,5.4014,5.4036,5.4112,5.4137,5.4249,5.4245,5.4317,5.4453,5.4503,5.4547,5.4687,5.4678,5.4711,5.4773,5.484,5.4855,5.4868,5.4916,5.4933,5.4722,5.4722,5.4722,0,5.3751,5.3878,5.3903,5.3994,5.4044,5.4043,5.4138,5.4186,5.4284,5.4317,5.4292,5.4462,5.451,5.4642,5.4676,5.4712,5.4737,5.4701,5.4851,5.4864,5.4877,5.4923,5.4941,5.4725,5.4725,5.4725,5.4724,0,5.3927,5.4014,5.4081,5.4177,5.4235,5.4327,5.4365,5.442,5.4427,5.4459,5.4571,5.4629,5.4716,5.4749,5.4757,5.4882,5.4866,5.4846,5.4798,5.4898,5.4942,5.496,5.473,5.4729,5.4728,5.4727,0,0,5.4068,5.4177,5.4201,5.4244,5.4329,5.4396,5.4487,5.4574,5.462,5.4687,5.4763,5.4877,5.4859,5.4908,5.4922,5.4981,5.5085,5.4953,5.4955,5.4974,5.5224,5.5238,5.5259,5.5081,5.5085,5.5087,5.5218,0,5.4197,5.436,5.4386,5.4529,5.4608,5.4609,5.4688,5.4747,5.4779,5.485,5.4884,5.4964,5.4935,5.4964,5.5023,5.506,5.5136,5.5051,5.5149,5.5153,5.513,5.5282,5.5297,5.5418,5.5235,5.5238,5.524,0,5.4369,5.4442,5.4593,5.4667,5.4701,5.4772,5.4853,5.4922,5.4988,5.5007,5.5062,5.5069,5.5161,5.5111,5.5237,5.5179,5.522,5.5245,5.525,5.5259,5.5202,5.5293,5.5457,5.5474,5.5268,5.5266,5.5264,0,5.4455,5.4591,5.4699,5.4735,5.4824,5.4874,5.4912,5.4976,5.5026,5.5096,5.5129,5.5208,5.5251,5.5311,5.5338,5.5299,5.5462,5.5414,5.5478,5.5477,5.5511,5.5508,5.5682,5.554,5.554,5.554,5.5539,0,5.4595,5.4687,5.4738,5.4804,5.4907,5.4934,5.5034,5.5071,5.5128,5.5199,5.5204,5.5271,5.5303,5.5374,5.5395,5.5495,5.5515,5.5531,5.5535,5.553,5.5528,5.5556,5.5548,5.5545,5.5543,5.5543,5.5542,0,5.4707,5.4746,5.4863,5.4938,5.4958,5.503,5.5093,5.5156,5.5188,5.5278,5.5301,5.5349,5.5433,5.5466,5.5568,5.5583,5.5697,5.5696,5.5675,5.5676,5.5737,5.5731,5.5935,5.5962,5.5803,5.5805,5.5806,0,5.4794,5.4865,5.4947,5.4996,5.5037,5.5116,5.5168,5.5197,5.525,5.5331,5.5384,5.5468,5.5537,5.567,5.5713,5.5791,5.579,5.5856,5.5801,5.5793,5.5789,5.5784,5.579,5.5866,5.5867,5.5868,5.587,0,5.4942,5.4958,5.5033,5.5114,5.5176,5.5241,5.5304,5.5344,5.5382,5.5441,5.5528,5.5581,5.5686,5.5769,5.5849,5.5886,5.5884,5.5887,5.5905,5.59,5.5884,5.5892,5.5701,5.5881,5.588,5.5879,5.5879,5.5878,5.5044,5.5106,5.5174,5.5256,5.5308,5.5366,5.5429,5.5469,5.5542,5.5631,5.5643,5.5735,5.5798,5.5906,5.5947,5.6018,5.6001,5.6028,5.6034,5.604,5.6044,5.5874,5.6033,5.6033,5.6032,5.6032,5.6032,0,5.5191,5.5234,5.5311,5.5399,5.5464,5.5459,5.5528,5.5582,5.5663,5.5724,5.5792,5.589,5.597,5.602,5.61,5.6147,5.6148,5.6167,5.6163,5.6171,5.6056,5.6031,5.6165,5.6165,5.6165,5.6165,5.6165,5.6164,5.5275,5.538,5.5403,5.5533,5.5575,5.5667,5.5707,5.5761,5.5809,5.5919,5.5986,5.6019,5.6074,5.6158,5.6231,5.6243,5.6271,5.6291,5.6302,5.6193,5.6179,5.6166,5.6143,5.6298,5.6298,5.6411,5.6412,5.6413]}]]